Omaha, NE

5:15 AM CDT on September 27, 2016 (GMT -0500)
Eppley Airfield

Weather History for KOMA - February, 2013

Change the Weather History Date:

Monday, February 11, 2013

  Actual Average Record
Temperature  
Mean Temperature 30 °F 27 °F  
Max Temperature 36 °F 37 °F 68 °F (1951)
Min Temperature 23 °F 17 °F -26 °F (1899)
Degree Days  
Heating Degree Days 35 38  
Month to date heating degree days 360 433  
Since 1 July heating degree days 3850 4198  
Cooling Degree Days 0 0  
Month to date cooling degree days 0 0  
Year to date cooling degree days 0 0  
Moisture  
Dew Point 21 °F    
Average Humidity 69    
Maximum Humidity 81    
Minimum Humidity 56    
Precipitation  
Precipitation T in 0.03 in 1.47 in (1965)
Month to date precipitation 0.03 0.30  
Year to date precipitation 0.53 1.02  
Snow  
Snow T in 0.30 in - ()
Month to date snowfall T 2.6  
Since 1 July snowfall 12.1 17.7  
Snow Depth 0.00 in    
Sea Level Pressure  
Sea Level Pressure 30.08 in    
Wind  
Wind Speed 14 mph (NW)    
Max Wind Speed 30 mph    
Max Gust Speed 39 mph    
Visibility 10 miles    
Events Snow    
T = Trace of Precipitation, MM = Missing Value Source: NWS Daily Summary

Daily Weather History Graph

Daily Weather History Graph

Search for Another Location

Airport or City:

Trip Planner

Search our weather history database for the weather conditions in past years. The results will help you decide how hot, cold, wet, or windy it might be!

Date:

Astronomy

Feb. 11, 2013 Rise Set
Actual Time 7:23 AM CST 5:52 PM CST
Civil Twilight 6:54 AM CST 6:21 PM CST
Nautical Twilight 6:22 AM CST 6:54 PM CST
Astronomical Twilight 5:50 AM CST 7:26 PM CST
Moon 7:46 AM CST (2/11) 7:52 PM CST (2/11)
Length of Visible Light 11h 26m
Length of Day
10h 29m
Waxing Crescent, 3% of the Moon is Illuminated
Feb 11
Waxing Crescent
Feb 17
First Quarter
Feb 25
Full
Mar 4
Last Quarter
Mar 11
New

Hourly Weather History & Observations

Time (CST) Temp. Windchill Dew Point Humidity Pressure Visibility Wind Dir Wind Speed Gust Speed Precip Events Conditions
12:52 AM 30.9 °F 18.1 °F 21.0 °F 67% 29.86 in 10.0 mi WNW 21.9 mph 34.5 mph N/A   Mostly Cloudy
1:52 AM 30.9 °F 17.2 °F 21.0 °F 67% 29.88 in 10.0 mi WNW 25.3 mph 33.4 mph N/A   Mostly Cloudy
2:11 AM 30.2 °F 18.1 °F 21.2 °F 69% 29.87 in 9.0 mi WNW 18.4 mph 32.2 mph 0.00 in Snow Light Snow
2:52 AM 30.9 °F 18.7 °F 23.0 °F 72% 29.92 in 9.0 mi WNW 19.6 mph 34.5 mph 0.00 in   Overcast
3:10 AM 30.2 °F 15.7 °F 21.2 °F 69% 29.90 in 10.0 mi WNW 27.6 mph 32.2 mph N/A   Mostly Cloudy
3:52 AM 30.0 °F 16.0 °F 21.0 °F 69% 29.94 in 10.0 mi NW 25.3 mph 35.7 mph N/A   Scattered Clouds
4:52 AM 28.9 °F 15.8 °F 19.9 °F 69% 29.97 in 10.0 mi NW 20.7 mph 29.9 mph N/A   Partly Cloudy
5:16 AM 30.2 °F 18.5 °F 19.4 °F 64% 29.97 in 10.0 mi WNW 17.3 mph 27.6 mph N/A   Mostly Cloudy
5:52 AM 28.9 °F 16.1 °F 19.9 °F 69% 30.02 in 10.0 mi WNW 19.6 mph 26.5 mph N/A   Mostly Cloudy
6:52 AM 30.0 °F 19.5 °F 21.0 °F 69% 30.04 in 10.0 mi NW 13.8 mph 20.7 mph N/A   Overcast
7:52 AM 30.0 °F 18.7 °F 19.9 °F 66% 30.07 in 10.0 mi NW 16.1 mph - N/A   Overcast
8:52 AM 30.0 °F 16.9 °F 19.9 °F 66% 30.09 in 10.0 mi NNW 21.9 mph 26.5 mph N/A   Mostly Cloudy
9:52 AM 30.9 °F 19.4 °F 19.9 °F 64% 30.13 in 10.0 mi NNW 17.3 mph 27.6 mph N/A   Overcast
10:52 AM 32.0 °F 21.2 °F 19.9 °F 61% 30.14 in 10.0 mi NW 16.1 mph 24.2 mph N/A   Overcast
11:52 AM 33.1 °F 22.6 °F 19.9 °F 59% 30.15 in 10.0 mi WNW 16.1 mph 25.3 mph N/A   Mostly Cloudy
12:52 PM 36.0 °F 26.3 °F 21.9 °F 57% 30.14 in 10.0 mi NW 16.1 mph - N/A   Mostly Cloudy
1:52 PM 34.0 °F 23.8 °F 21.9 °F 61% 30.15 in 10.0 mi NW 16.1 mph - N/A   Mostly Cloudy
2:52 PM 34.0 °F 24.6 °F 21.9 °F 61% 30.15 in 10.0 mi West 13.8 mph - N/A   Overcast
3:52 PM 34.0 °F 24.6 °F 21.9 °F 61% 30.14 in 10.0 mi NW 13.8 mph - N/A   Overcast
4:52 PM 34.0 °F 26.0 °F 21.0 °F 59% 30.14 in 10.0 mi WNW 10.4 mph - N/A   Overcast
5:52 PM 32.0 °F 23.6 °F 21.9 °F 66% 30.15 in 10.0 mi NNW 10.4 mph - N/A   Mostly Cloudy
6:30 PM 30.2 °F 22.6 °F 21.2 °F 69% 30.13 in 10.0 mi North 8.1 mph - N/A   Scattered Clouds
6:52 PM 28.9 °F 21.1 °F 21.0 °F 72% 30.17 in 10.0 mi North 8.1 mph - N/A   Partly Cloudy
7:52 PM 26.1 °F 18.4 °F 19.9 °F 78% 30.19 in 10.0 mi NNW 6.9 mph - N/A   Clear
8:52 PM 26.1 °F 20.5 °F 19.9 °F 78% 30.17 in 10.0 mi NW 4.6 mph - N/A   Clear
9:52 PM 25.0 °F 19.3 °F 19.0 °F 78% 30.18 in 10.0 mi NW 4.6 mph - N/A   Clear
10:52 PM 26.1 °F 21.9 °F 19.9 °F 78% 30.19 in 10.0 mi WSW 3.5 mph - N/A   Clear
11:52 PM 23.0 °F - 18.0 °F 81% 30.20 in 10.0 mi Calm Calm - N/A   Clear